Hourly Data Report for October 31, 2019

All times are specified in Local Standard Time (LST). Add 1 hour to adjust for Daylight Saving Time where and when it is observed.

EUREKA CLIMATE
NUNAVUT
Current Station Operator: ECCC - MSC

79°59'21.000" N
85°56'02.000" W
10.00 m
2401199
71613
NEK

Download Data

Hourly Data (October 2019)
Hourly Data Report for October 31, 2019
TIME Temp Definition
°C
Dew Point Definition
°C
Rel Hum Definition
%
Wind Dir Definition
10's deg

Wind Spd Definition
km/h
Visibility Definition
km
Stn Press Definition
kPa
Hmdx Definition


Wind Chill Definition


Weather Definition


00:00 -27.4 -29.8 80 4 1   101.53   -28 LegendNANA
01:00 -28.6 -31.2 78 3 2   101.51   -31 LegendNANA
02:00 -27.9 -30.5 79 5 1   101.50   -29 LegendNANA
03:00 -29.4 -32.1 77 4 2   101.47   -32 LegendNANA
04:00 -28.4 -31.0 78 4 1   101.46   -29 LegendNANA
05:00 -30.1 -32.9 77 4 1   101.43   -31 LegendNANA
06:00 -28.7 -31.2 79   0   101.40     LegendNANA
07:00 -29.1 -31.7 78 4 1   101.38   -30 LegendNANA
08:00 -28.6 -31.2 78 0 1   101.37   -30 LegendNANA
09:00 -29.6 -32.4 77   0   101.33     LegendNANA
10:00 -29.1 -31.8 78   0   101.29     LegendNANA
11:00 -30.2 -33.0 77 2 2   101.28   -32 LegendNANA
12:00 -30.0 -32.7 77   0   101.25     LegendNANA
13:00 -29.9 -32.8 76   0   101.23     LegendNANA
14:00 -28.1 -30.7 79   0   101.23     LegendNANA
15:00 -27.8 -30.4 79   0   101.21     LegendNANA
16:00 -23.7 -25.8 83 29 2   101.18   -26 LegendNANA
17:00 -23.0 -25.0 84 30 5   101.15   -28 LegendNANA
18:00 -22.7 -24.7 84 30 5   101.14   -27 LegendNANA
19:00 -22.0 -23.9 85 30 4   101.12   -26 LegendNANA
20:00 -22.5 -24.4 85 30 5   101.09   -27 LegendNANA
21:00 -22.3 -24.2 84 30 6   101.08   -28 LegendNANA
22:00 -21.2 -23.1 85 28 5   101.07   -26 LegendNANA
23:00 -20.6 -22.2 87 24 2   101.05   -22 LegendNANA

Notes on Data Quality.

Legend

  • E = Estimated
  • M = Missing
  • NA = Not Available
Date modified: